Location: Coopersdale
(40.3556°N, 78.9372°W)
Time: 03:39:08
(UTC+00:00)

Tiros 1 despin weight - Pass Details

Date: 22 January 2021
Orbit: 593 x 642 km, 48.2° (Epoch: 02 March)

Event Time Altitude Azimuth Distance (km) Brightness Sun altitude
Rises 03:41:59 0° 287° (WNW) 2,828 - -59.4°
Reaches altitude 10° 03:44:56 10° 267° (W) 1,920 - -59.9°
Maximum altitude 03:47:44 17° 227° (SW) 1,525 - -60.3°
Drops below altitude 10° 03:50:33 10° 187° (S) 1,914 - -60.7°
Sets 03:53:30 0° 167° (SSE) 2,814 - -61.2°
